COSMOS 1275 DEB, 42195

Orbit data source: Space-Track

COSMOS 1275 DEB, 42195 is space debris in LEO originally from a launch on Thu, 04 Jun 1981 UTC launched from the Plesetsk Missile And Space Complex (PKMTR). Debris objects in space refer to the collection of defunct objects orbiting the Earth. Examples of debris include non-operational satellites, rocket bodies, and fragments generated from explosions, collisions, or faulty payload assembly.

Loading next visibility...
Identifier
42195, 1981-053TK
Orbit
LEO
Country
Flag of CISCIS
Related business
Manufacturer
Unknown
Mission
Spacecraft
Bus & Motor
Unknown
Mass
Unknown
Launch date (UTC)
1981-06-04 (44 years ago)
Launch vehicle
Unknown
Launch site
Plesetsk Missile And Space Complex (PKMTR)
Object type
Payload
Rocket body
Debris
Shape & HBR
Unknown shape, 0.1 m
Radar Cross Section
Small (<0.1 m²)

Expand to show TLE details & history
Last TLE update: 2 months ago

TLE from 2 months ago
0 COSMOS 1275 DEB
1 42195U 81053TK  25215.46671638  .00001243  00000-0  11309-2 0  9990
2 42195  83.0347 130.5664 0104067 320.3209  39.0367 13.80324667560470
Epoch: 2025-08-03T11:12Z
TLE epoch observation values (Epoch: 2025-08-03T11:12:04.295Z)
Latitude
-0.00005°
Longitude
10.26037°
Altitude
906.614 km
Speed
7.428 km/s
True Right ascension
08h 42m 15s
True Declination
0° 00' 00"
Sunlit
Object was in daylight at epoch
Visualization orbit readout
Latitude
Unknown
Longitude
Unknown
Altitude
Unknown
Speed
Unknown
Apparent Right ascension
Unknown
Apparent Declination
Unknown
Sunlit
N/A
Visualization observer readout
Local Sidereal Time
21:07:19
Azimuth
Unknown
Elevation
Unknown
Doppler factor
Unknown
Orbital elements
Apogee altitude
1,036.237 km
Perigee altitude
883.508 km
Semi-major axis
7,338.01 km
Eccentricity
0.01041
Inclination
83.0347°
RAAN
130.5664°
Arg. of periapsis
320.3209°
True anomaly
39.79541°
Mean anomaly
39.0367°
Eccentric anomaly
39.41529°
Mean motion
3.45283 °/min
Orbital period
104.26 mins
BSTAR
0.0011309
Loading maneuver chart data...
Computing Atmospheric mass density...
Loading historical data...
Loading historical data...
Loading historical data...
Loading historical data...
Loading historical data...
Loading historical data...
Loading historical data...

Documentation

Showing up to 5 results
|